User: anonymous   Login
Location: Newark
(42.8481°N, 0.4872°E)
Time: 10:24:58
(UTC+00:00)
Language:

A-11 Canister half - Orbit

View from above orbital plane
View from above orbital plane
View from above satellite
View from above satellite

Ground track
Ground track

The orbit data is extracted from the following two-line orbital elements,

1 00051U 60009C   21136.75243880 -.00000094  00000-0 -73978-4 0  9994
2 00051  47.2150  36.2776 0107310  73.0582 288.1937 12.18275274704722
Epoch (UTC): 16 May 2021 18:03:30
Eccentricity: 0.0107310
inclination: 47.2150°
perigee height: 1514 km
apogee height: 1685 km
right ascension of ascending node: 36.2776°
argument of perigee: 73.0582°
revolutions per day: 12.18275274
mean anomaly at epoch: 288.1937°
orbit number at epoch: 70472

The dashed part of the orbit path shows where the satellite is in the earth's shadow,  

DLR